Location: Prairie View Elementary School
(39.8322°N, 99.5698°W)
Time: 09:18:16
(UTC+00:00)

Meteor 1-5 Rocket - Pass Details

Date: 08 December 2019
Orbit: 788 x 916 km, 81.2° (Epoch: 26 January)

Event Time Altitude Azimuth Distance (km) Brightness Sun altitude
Rises 00:06:40 0° 351° (N) 3,420 7.2 -10.1°
Reaches altitude 10° 00:09:08 10° 352° (N) 2,461 6.5 -10.5°
Maximum altitude 00:14:42 83° 81° (E) 830 4.1 -11.5°
Drops below altitude 10° 00:20:03 10° 169° (S) 2,371 6.6 -12.5°
Sets 00:22:24 0° 170° (S) 3,286 7.4 -12.9°
